Watsonville, CA

2:51 PM PDT on October 17, 2017 (GMT -0700)
Watsonville Municipal

Weather History for KWVI - April, 2013

Change the Weather History Date:

Friday, April 12, 2013

  Actual Average Record
Temperature  
Mean Temperature 55 °F 55 °F  
Max Temperature 64 °F 66 °F 86 °F (2008)
Min Temperature 45 °F 44 °F 39 °F (2007)
Degree Days  
Heating Degree Days 10    
Month to date heating degree days 87  
Since 1 July heating degree days 2606  
Cooling Degree Days 0    
Month to date cooling degree days 0  
Year to date cooling degree days 0  
Growing Degree Days 4 (Base 50)    
Moisture  
Dew Point 46 °F    
Average Humidity 77    
Maximum Humidity 93    
Minimum Humidity 60    
Precipitation  
Precipitation 0.00 in - 1.07 in (2012)
Month to date precipitation 0.58  
Year to date precipitation 2.32  
Since 1 July precipitation 13.26  
Sea Level Pressure  
Sea Level Pressure 29.92 in    
Wind  
Wind Speed 4 mph (SSE)    
Max Wind Speed 12 mph    
Max Gust Speed 21 mph    
Visibility 9 miles    
Events      
T = Trace of Precipitation, MM = Missing Value Source: NWS Daily Summary

Daily Weather History Graph

Daily Weather History Graph

Search for Another Location

Airport or City:

Trip Planner

Search our weather history database for the weather conditions in past years. The results will help you decide how hot, cold, wet, or windy it might be!

Date:

Astronomy

Apr. 12, 2013 Rise Set
Actual Time 6:36 AM PDT 7:39 PM PDT
Civil Twilight 6:10 AM PDT 8:06 PM PDT
Nautical Twilight 5:38 AM PDT 8:37 PM PDT
Astronomical Twilight 5:05 AM PDT 9:10 PM PDT
Moon 7:53 AM PDT (4/12) 10:11 PM PDT (4/12)
Length of Visible Light 13h 56m
Length of Day
13h 02m
Waxing Crescent, 6% of the Moon is Illuminated
Apr 12
Waxing Crescent
Apr 18
First Quarter
Apr 25
Full
May 2
Last Quarter
May 9
New

Hourly Weather History & Observations

Time (PDT) Temp. Windchill Dew Point Humidity Pressure Visibility Wind Dir Wind Speed Gust Speed Precip Events Conditions
12:33 AM 48.2 °F - 42.8 °F 82% 29.92 in 9.0 mi Calm Calm - N/A   Mostly Cloudy
12:41 AM 48.2 °F - 44.6 °F 87% 29.92 in 9.0 mi Calm Calm - N/A   Mostly Cloudy
12:53 AM 46.9 °F - 44.1 °F 90% 29.92 in 9.0 mi Calm Calm - N/A   Overcast
1:53 AM 48.9 °F - 46.0 °F 90% 29.92 in 6.0 mi Variable 3.5 mph - N/A   Overcast
2:53 AM 48.9 °F - 46.0 °F 90% 29.92 in 7.0 mi NE 5.8 mph - N/A   Overcast
3:53 AM 48.0 °F - 45.0 °F 89% 29.90 in 7.0 mi Calm Calm - N/A   Overcast
4:53 AM 46.9 °F - 44.1 °F 90% 29.90 in 8.0 mi Calm Calm - N/A   Overcast
5:48 AM 46.4 °F - 42.8 °F 87% 29.90 in 9.0 mi Calm Calm - N/A   Mostly Cloudy
5:53 AM 46.0 °F - 43.0 °F 89% 29.90 in 9.0 mi Calm Calm - N/A   Mostly Cloudy
6:17 AM 46.4 °F 45.2 °F 42.8 °F 87% 29.90 in 10.0 mi NW 3.5 mph - N/A   Overcast
6:53 AM 45.0 °F - 43.0 °F 93% 29.92 in 10.0 mi Calm Calm - N/A   Overcast
7:53 AM 48.0 °F - 44.1 °F 86% 29.94 in 9.0 mi Calm Calm - N/A   Mostly Cloudy
8:01 AM 48.2 °F - 44.6 °F 87% 29.94 in 8.0 mi Calm Calm - N/A   Scattered Clouds
8:53 AM 51.1 °F - 46.0 °F 83% 29.95 in 8.0 mi Calm Calm - N/A   Scattered Clouds
9:02 AM 51.8 °F - 46.4 °F 82% 29.95 in 8.0 mi Calm Calm - N/A   Mostly Cloudy
9:13 AM 51.8 °F - 46.4 °F 82% 29.95 in 8.0 mi Calm Calm - N/A   Scattered Clouds
9:53 AM 54.0 °F - 46.9 °F 77% 29.95 in 8.0 mi Calm Calm - N/A   Clear
10:53 AM 57.9 °F - 48.0 °F 70% 29.94 in 9.0 mi SSW 4.6 mph - N/A   Clear
11:53 AM 59.0 °F - 48.9 °F 69% 29.94 in 8.0 mi South 5.8 mph - N/A   Clear
12:53 PM 61.0 °F - 48.9 °F 64% 29.92 in 10.0 mi South 8.1 mph - N/A   Clear
1:53 PM 62.1 °F - 48.9 °F 62% 29.90 in 10.0 mi South 8.1 mph - N/A   Clear
2:53 PM 63.0 °F - 48.9 °F 60% 29.89 in 10.0 mi South 8.1 mph - N/A   Clear
3:53 PM 62.1 °F - 48.9 °F 62% 29.88 in 10.0 mi South 9.2 mph - N/A   Clear
4:53 PM 61.0 °F - 46.9 °F 60% 29.88 in 10.0 mi SSE 5.8 mph - N/A   Clear
5:53 PM 59.0 °F - 48.0 °F 67% 29.88 in 10.0 mi Variable 4.6 mph - N/A   Clear
6:53 PM 55.0 °F - 48.0 °F 77% 29.88 in 9.0 mi SE 9.2 mph - N/A   Clear
7:53 PM 51.1 °F - 46.9 °F 86% 29.89 in 9.0 mi SE 8.1 mph - N/A   Clear
8:53 PM 50.0 °F - 46.0 °F 86% 29.91 in 10.0 mi East 4.6 mph - N/A   Clear
9:53 PM 50.0 °F - 46.0 °F 86% 29.91 in 10.0 mi ENE 4.6 mph - N/A   Clear
10:53 PM 50.0 °F - 45.0 °F 83% 29.93 in 9.0 mi Calm Calm - N/A   Clear
11:53 PM 48.9 °F - 45.0 °F 86% 29.93 in 9.0 mi Calm Calm - N/A   Clear